^^

..:: Storico WU ::..




Lo storico viene creato da WUnderground con i dati che la stazione Meteomincio invia al loro server. L' aggiornamento viene fatto ogni 5 minuti circa, tuttavia possono esserci intervalli pił ampi a causa di errori, interruzioni di servizio o problemi nell' invio tramite FTP.


Storico stazione MeteoMincio
Giorno Sommario per Febbario 12, 2022 Unità:  Inglese    Metrico   Entrambi
Giorno Settimana Mese Anno
  Max: Min: Media:
Temperatura: 55.4 °F 33.8 °F 43.3 °F
Dew Point: 39.2 °F 24.8 °F 32 °F
Umidità: 94% 33% 69%
Velocità vento: 14.3mph 0mph 4.6mph
Raffica: 19.9mph - -
Direzione- - East
Pressione: 30.5 in 30.4 in -
Precipitazioni: 0 in    
 
 
Tabulato Dati per Febbario 12, 2022
Ora Temperatura Dew Point Pressione Direzione Velocità vento Raffica Umidità Intensità pioggia (oraria) Info solare Situazione
00:04 39.2 °F 37.4 °F 30.4 in NE 1.2 mph 2.5 mph 90% 0 in 0.00 W/m2 unknown
00:09 39.2 °F 37.4 °F 30.4 in NE 1.9 mph 2.5 mph 90% 0 in 0.00 W/m2 unknown
00:14 39.2 °F 37.4 °F 30.4 in NE 1.9 mph 2.5 mph 90% 0 in 0.00 W/m2 unknown
00:19 39.2 °F 37.4 °F 30.4 in NE 1.9 mph 2.5 mph 90% 0 in 0.00 W/m2 unknown
00:24 39.2 °F 37.4 °F 30.4 in NE 1.9 mph 2.5 mph 90% 0 in 0.00 W/m2 unknown
00:29 39.2 °F 37.4 °F 30.4 in NE 1.9 mph 2.5 mph 91% 0 in 0.00 W/m2 unknown
00:34 39.2 °F 37.4 °F 30.4 in NE 2.5 mph 3.7 mph 91% 0 in 0.00 W/m2 unknown
00:39 39.2 °F 37.4 °F 30.4 in NE 2.5 mph 3.7 mph 91% 0 in 0.00 W/m2 unknown
00:44 39.2 °F 37.4 °F 30.4 in NE 2.5 mph 3.7 mph 91% 0 in 0.00 W/m2 unknown
00:49 39.2 °F 37.4 °F 30.4 in NE 2.5 mph 3.7 mph 91% 0 in 0.00 W/m2 unknown
00:54 39.2 °F 37.4 °F 30.4 in NE 2.5 mph 3.7 mph 91% 0 in 0.00 W/m2 unknown
00:59 39.2 °F 37.4 °F 30.4 in NE 1.9 mph 3.7 mph 91% 0 in 0.00 W/m2 unknown
01:04 39.2 °F 35.6 °F 30.4 in NE 1.2 mph 3.1 mph 91% 0 in 0.00 W/m2 unknown
01:09 39.2 °F 35.6 °F 30.4 in NE 2.5 mph 3.7 mph 91% 0 in 0.00 W/m2 unknown
01:14 39.2 °F 37.4 °F 30.4 in NE 1.9 mph 3.7 mph 91% 0 in 0.00 W/m2 unknown
01:19 39.2 °F 37.4 °F 30.4 in NE 1.9 mph 3.7 mph 91% 0 in 0.00 W/m2 unknown
01:24 39.2 °F 35.6 °F 30.4 in ENE 2.5 mph 3.7 mph 91% 0 in 0.00 W/m2 unknown
01:29 37.4 °F 35.6 °F 30.4 in East 3.1 mph 3.7 mph 91% 0 in 0.00 W/m2 unknown
01:34 37.4 °F 35.6 °F 30.4 in NE 1.9 mph 3.7 mph 92% 0 in 0.00 W/m2 unknown
01:39 37.4 °F 35.6 °F 30.4 in NE 2.5 mph 3.7 mph 92% 0 in 0.00 W/m2 unknown
01:44 37.4 °F 35.6 °F 30.4 in NE 1.9 mph 3.7 mph 93% 0 in 0.00 W/m2 unknown
01:49 37.4 °F 35.6 °F 30.4 in NNE 1.9 mph 3.1 mph 93% 0 in 0.00 W/m2 unknown
01:54 37.4 °F 37.4 °F 30.4 in NE 2.5 mph 3.7 mph 93% 0 in 0.00 W/m2 unknown
01:59 39.2 °F 37.4 °F 30.4 in ENE 3.7 mph 3.7 mph 93% 0 in 0.00 W/m2 unknown
02:04 39.2 °F 37.4 °F 30.4 in ENE 5 mph 6.8 mph 93% 0 in 0.00 W/m2 unknown
02:09 39.2 °F 37.4 °F 30.4 in ENE 5.6 mph 8.1 mph 92% 0 in 0.00 W/m2 unknown
02:14 41 °F 37.4 °F 30.4 in ENE 6.2 mph 8.1 mph 91% 0 in 0.00 W/m2 unknown
02:19 41 °F 37.4 °F 30.4 in ENE 5 mph 6.8 mph 89% 0 in 0.00 W/m2 unknown
02:24 41 °F 37.4 °F 30.4 in ENE 5 mph 6.8 mph 89% 0 in 0.00 W/m2 unknown
02:29 39.2 °F 37.4 °F 30.4 in ENE 4.3 mph 6.8 mph 89% 0 in 0.00 W/m2 unknown
02:34 39.2 °F 37.4 °F 30.4 in ENE 5.6 mph 8.1 mph 89% 0 in 0.00 W/m2 unknown
02:39 39.2 °F 37.4 °F 30.4 in ENE 6.8 mph 9.3 mph 88% 0 in 0.00 W/m2 unknown
02:44 39.2 °F 37.4 °F 30.4 in ENE 6.2 mph 8.7 mph 88% 0 in 0.00 W/m2 unknown
02:49 39.2 °F 37.4 °F 30.4 in ENE 5.6 mph 8.1 mph 88% 0 in 0.00 W/m2 unknown
02:54 39.2 °F 35.6 °F 30.4 in ENE 5 mph 8.1 mph 88% 0 in 0.00 W/m2 unknown
02:59 39.2 °F 35.6 °F 30.4 in ENE 5 mph 6.8 mph 88% 0 in 0.00 W/m2 unknown
03:04 39.2 °F 35.6 °F 30.4 in ENE 4.3 mph 6.8 mph 89% 0 in 0.00 W/m2 unknown
03:09 39.2 °F 35.6 °F 30.4 in ENE 3.7 mph 6.2 mph 89% 0 in 0.00 W/m2 unknown
03:14 39.2 °F 35.6 °F 30.4 in ENE 3.7 mph 5 mph 90% 0 in 0.00 W/m2 unknown
03:19 39.2 °F 35.6 °F 30.4 in ENE 3.1 mph 5 mph 90% 0 in 0.00 W/m2 unknown
03:24 39.2 °F 35.6 °F 30.4 in ENE 4.3 mph 6.8 mph 90% 0 in 0.00 W/m2 unknown
03:29 39.2 °F 35.6 °F 30.4 in ENE 5 mph 6.8 mph 90% 0 in 0.00 W/m2 unknown
03:34 39.2 °F 35.6 °F 30.4 in ENE 5 mph 6.8 mph 90% 0 in 0.00 W/m2 unknown
03:39 39.2 °F 35.6 °F 30.4 in ENE 5.6 mph 8.1 mph 90% 0 in 0.00 W/m2 unknown
03:44 39.2 °F 35.6 °F 30.4 in ENE 5.6 mph 8.1 mph 90% 0 in 0.00 W/m2 unknown
03:49 39.2 °F 35.6 °F 30.4 in ENE 5 mph 8.1 mph 90% 0 in 0.00 W/m2 unknown
03:54 39.2 °F 35.6 °F 30.4 in ENE 5 mph 6.8 mph 90% 0 in 0.00 W/m2 unknown
03:59 39.2 °F 35.6 °F 30.4 in ENE 5 mph 6.8 mph 91% 0 in 0.00 W/m2 unknown
04:04 39.2 °F 35.6 °F 30.4 in ENE 5.6 mph 8.1 mph 91% 0 in 0.00 W/m2 unknown
04:09 39.2 °F 35.6 °F 30.4 in East 5 mph 8.1 mph 91% 0 in 0.00 W/m2 unknown
04:14 39.2 °F 35.6 °F 30.4 in East 7.5 mph 8.7 mph 91% 0 in 0.00 W/m2 unknown
04:19 39.2 °F 37.4 °F 30.4 in East 7.5 mph 11.8 mph 91% 0 in 0.00 W/m2 unknown
04:24 39.2 °F 37.4 °F 30.4 in East 7.5 mph 11.8 mph 91% 0 in 0.00 W/m2 unknown
04:29 39.2 °F 37.4 °F 30.4 in East 7.5 mph 9.9 mph 91% 0 in 0.00 W/m2 unknown
04:34 39.2 °F 37.4 °F 30.4 in East 6.8 mph 8.7 mph 91% 0 in 0.00 W/m2 unknown
04:39 39.2 °F 37.4 °F 30.4 in East 6.2 mph 8.1 mph 91% 0 in 0.00 W/m2 unknown
04:44 39.2 °F 37.4 °F 30.4 in East 5.6 mph 8.1 mph 91% 0 in 0.00 W/m2 unknown
04:49 39.2 °F 37.4 °F 30.4 in East 5.6 mph 6.8 mph 91% 0 in 0.00 W/m2 unknown
04:54 39.2 °F 37.4 °F 30.4 in East 5 mph 6.8 mph 91% 0 in 0.00 W/m2 unknown
04:59 39.2 °F 37.4 °F 30.4 in East 5 mph 6.8 mph 91% 0 in 0.00 W/m2 unknown
05:04 39.2 °F 37.4 °F 30.4 in ENE 5 mph 6.8 mph 91% 0 in 0.00 W/m2 unknown
05:09 39.2 °F 37.4 °F 30.4 in ENE 4.3 mph 6.2 mph 91% 0 in 0.00 W/m2 unknown
05:14 39.2 °F 37.4 °F 30.4 in ENE 5 mph 6.8 mph 91% 0 in 0.00 W/m2 unknown
05:19 39.2 °F 37.4 °F 30.4 in ENE 4.3 mph 6.8 mph 91% 0 in 0.00 W/m2 unknown
05:24 39.2 °F 37.4 °F 30.4 in ENE 4.3 mph 5 mph 91% 0 in 0.00 W/m2 unknown
05:29 39.2 °F 35.6 °F 30.4 in ENE 3.1 mph 5 mph 91% 0 in 0.00 W/m2 unknown
05:34 39.2 °F 35.6 °F 30.4 in ENE 3.7 mph 5 mph 91% 0 in 0.00 W/m2 unknown
05:39 39.2 °F 35.6 °F 30.4 in ENE 3.1 mph 5 mph 91% 0 in 0.00 W/m2 unknown
05:44 37.4 °F 35.6 °F 30.5 in ENE 3.1 mph 5 mph 92% 0 in 0.00 W/m2 unknown
05:49 37.4 °F 35.6 °F 30.5 in ENE 3.1 mph 5 mph 92% 0 in 0.00 W/m2 unknown
05:54 37.4 °F 35.6 °F 30.5 in NE 3.1 mph 3.7 mph 92% 0 in 0.00 W/m2 unknown
05:59 37.4 °F 35.6 °F 30.5 in NE 3.1 mph 3.7 mph 92% 0 in 0.00 W/m2 unknown
06:04 37.4 °F 35.6 °F 30.5 in NE 3.1 mph 3.7 mph 92% 0 in 0.00 W/m2 unknown
06:09 37.4 °F 35.6 °F 30.5 in NE 3.1 mph 3.7 mph 92% 0 in 0.00 W/m2 unknown
06:14 37.4 °F 35.6 °F 30.5 in NE 2.5 mph 3.7 mph 92% 0 in 0.00 W/m2 unknown
06:19 37.4 °F 35.6 °F 30.5 in NE 3.1 mph 3.7 mph 93% 0 in 0.00 W/m2 unknown
06:24 37.4 °F 35.6 °F 30.5 in ENE 2.5 mph 3.7 mph 93% 0 in 0.00 W/m2 unknown
06:29 37.4 °F 35.6 °F 30.5 in ENE 2.5 mph 3.7 mph 92% 0 in 0.00 W/m2 unknown
06:34 37.4 °F 35.6 °F 30.5 in NE 3.1 mph 3.7 mph 92% 0 in 0.00 W/m2 unknown
06:39 37.4 °F 35.6 °F 30.5 in NE 2.5 mph 3.7 mph 92% 0 in 0.00 W/m2 unknown
06:44 37.4 °F 33.8 °F 30.5 in NE 2.5 mph 3.7 mph 92% 0 in 0.00 W/m2 unknown
06:49 35.6 °F 33.8 °F 30.5 in NE 2.5 mph 3.7 mph 92% 0 in 0.00 W/m2 unknown
06:54 35.6 °F 33.8 °F 30.5 in NE 2.5 mph 3.7 mph 92% 0 in 0.00 W/m2 unknown
06:59 35.6 °F 33.8 °F 30.5 in NE 1.9 mph 3.7 mph 93% 0 in 0.00 W/m2 unknown
07:04 35.6 °F 33.8 °F 30.5 in NE 1.2 mph 3.1 mph 93% 0 in 0.00 W/m2 unknown
07:09 35.6 °F 33.8 °F 30.5 in Calm   1.9 mph 93% 0 in 0.00 W/m2 unknown
07:14 35.6 °F 33.8 °F 30.5 in Calm   1.2 mph 93% 0 in 0.00 W/m2 unknown
07:19 35.6 °F 33.8 °F 30.5 in Calm   1.2 mph 93% 0 in 0.00 W/m2 unknown
07:24 35.6 °F 33.8 °F 30.5 in NE 0.6 mph 1.2 mph 93% 0 in 0.00 W/m2 unknown
07:29 33.8 °F 32 °F 30.5 in ESE 1.2 mph 2.5 mph 93% 0 in 5.00 W/m2 unknown
07:34 33.8 °F 32 °F 30.5 in ESE 0.6 mph 1.9 mph 93% 0 in 9.00 W/m2 unknown
07:39 33.8 °F 33.8 °F 30.5 in Calm   1.2 mph 94% 0 in 12.00 W/m2 unknown
07:44 33.8 °F 33.8 °F 30.5 in Calm   1.2 mph 94% 0 in 14.00 W/m2 unknown
07:49 33.8 °F 32 °F 30.5 in Calm     94% 0 in 18.00 W/m2 unknown
07:54 33.8 °F 32 °F 30.5 in Calm     94% 0 in 19.00 W/m2 unknown
07:59 33.8 °F 32 °F 30.5 in Calm   1.2 mph 94% 0 in 23.00 W/m2 unknown
08:04 33.8 °F 32 °F 30.5 in Calm   1.2 mph 94% 0 in 37.00 W/m2 unknown
08:09 33.8 °F 32 °F 30.5 in Calm     94% 0 in 54.00 W/m2 unknown
08:14 33.8 °F 33.8 °F 30.5 in Calm     94% 0 in 67.00 W/m2 unknown
08:19 35.6 °F 33.8 °F 30.5 in Calm     94% 0 in 76.00 W/m2 unknown
08:24 35.6 °F 33.8 °F 30.5 in Calm     94% 0 in 91.00 W/m2 unknown
08:29 35.6 °F 33.8 °F 30.5 in SE 0.6 mph 1.2 mph 94% 0 in 105.00 W/m2 unknown
08:34 37.4 °F 35.6 °F 30.5 in SE 1.2 mph 1.2 mph 94% 0 in 120.00 W/m2 unknown
08:39 37.4 °F 35.6 °F 30.5 in SE 0.6 mph 1.2 mph 93% 0 in 132.00 W/m2 unknown
08:44 39.2 °F 35.6 °F 30.5 in ESE 0.6 mph 1.2 mph 92% 0 in 144.00 W/m2 unknown
08:49 39.2 °F 35.6 °F 30.5 in NNW 1.2 mph 2.5 mph 91% 0 in 162.00 W/m2 unknown
08:54 39.2 °F 35.6 °F 30.5 in NW 1.2 mph 2.5 mph 90% 0 in 176.00 W/m2 unknown
08:59 39.2 °F 37.4 °F 30.5 in NNW 1.2 mph 2.5 mph 89% 0 in 192.00 W/m2 unknown
09:04 41 °F 37.4 °F 30.5 in NNW 1.2 mph 2.5 mph 89% 0 in 204.00 W/m2 unknown
09:09 41 °F 37.4 °F 30.5 in North 1.2 mph 2.5 mph 88% 0 in 214.00 W/m2 unknown
09:14 42.8 °F 37.4 °F 30.5 in NNE 1.9 mph 3.7 mph 88% 0 in 227.00 W/m2 unknown
09:19 42.8 °F 37.4 °F 30.5 in NNE 3.1 mph 3.7 mph 85% 0 in 239.00 W/m2 unknown
09:24 42.8 °F 37.4 °F 30.5 in NE 3.1 mph 3.7 mph 83% 0 in 251.00 W/m2 unknown
09:29 42.8 °F 37.4 °F 30.5 in NE 2.5 mph 3.7 mph 80% 0 in 265.00 W/m2 unknown
09:34 42.8 °F 37.4 °F 30.5 in North 2.5 mph 3.7 mph 80% 0 in 276.00 W/m2 unknown
09:39 44.6 °F 37.4 °F 30.5 in North 2.5 mph 3.7 mph 80% 0 in 290.00 W/m2 unknown
09:44 44.6 °F 37.4 °F 30.5 in North 2.5 mph 3.7 mph 78% 0 in 302.00 W/m2 unknown
09:49 44.6 °F 39.2 °F 30.5 in NNE 1.9 mph 3.7 mph 78% 0 in 315.00 W/m2 unknown
09:54 46.4 °F 39.2 °F 30.5 in NNE 3.1 mph 3.7 mph 77% 0 in 327.00 W/m2 unknown
09:59 46.4 °F 39.2 °F 30.5 in NE 4.3 mph 6.8 mph 74% 0 in 339.00 W/m2 unknown
10:04 46.4 °F 37.4 °F 30.5 in NE 5 mph 6.8 mph 72% 0 in 350.00 W/m2 unknown
10:09 46.4 °F 37.4 °F 30.5 in NE 5 mph 6.8 mph 70% 0 in 360.00 W/m2 unknown
10:14 48.2 °F 37.4 °F 30.5 in ENE 5.6 mph 8.1 mph 69% 0 in 373.00 W/m2 unknown
10:19 48.2 °F 37.4 °F 30.5 in ENE 6.8 mph 9.3 mph 67% 0 in 381.00 W/m2 unknown
10:24 48.2 °F 37.4 °F 30.5 in ENE 7.5 mph 9.3 mph 66% 0 in 392.00 W/m2 unknown
10:29 48.2 °F 37.4 °F 30.5 in ENE 8.7 mph 11.8 mph 64% 0 in 401.00 W/m2 unknown
10:34 50 °F 35.6 °F 30.5 in ENE 7.5 mph 11.8 mph 60% 0 in 410.00 W/m2 unknown
10:39 50 °F 35.6 °F 30.5 in ENE 9.3 mph 11.8 mph 59% 0 in 418.00 W/m2 unknown
10:44 50 °F 35.6 °F 30.5 in ENE 9.3 mph 11.8 mph 57% 0 in 424.00 W/m2 unknown
10:49 50 °F 35.6 °F 30.5 in East 6.8 mph 11.8 mph 58% 0 in 434.00 W/m2 unknown
10:54 50 °F 35.6 °F 30.5 in ENE 7.5 mph 9.9 mph 58% 0 in 443.00 W/m2 unknown
10:59 50 °F 33.8 °F 30.5 in East 8.1 mph 11.8 mph 55% 0 in 450.00 W/m2 unknown
11:04 50 °F 33.8 °F 30.5 in ENE 8.7 mph 11.8 mph 54% 0 in 457.00 W/m2 unknown
11:09 50 °F 33.8 °F 30.5 in East 8.7 mph 11.8 mph 54% 0 in 461.00 W/m2 unknown
11:14 50 °F 33.8 °F 30.5 in ESE 8.7 mph 11.8 mph 53% 0 in 469.00 W/m2 unknown
11:19 50 °F 32 °F 30.5 in East 8.1 mph 11.8 mph 50% 0 in 476.00 W/m2 unknown
11:24 51.8 °F 32 °F 30.5 in East 7.5 mph 9.9 mph 49% 0 in 482.00 W/m2 unknown
11:29 51.8 °F 32 °F 30.5 in East 7.5 mph 11.8 mph 49% 0 in 485.00 W/m2 unknown
11:34 51.8 °F 33.8 °F 30.5 in ENE 8.1 mph 11.8 mph 49% 0 in 492.00 W/m2 unknown
11:39 51.8 °F 32 °F 30.5 in NE 10.6 mph 14.9 mph 48% 0 in 497.00 W/m2 unknown
11:44 51.8 °F 30.2 °F 30.5 in ENE 13.7 mph 18.6 mph 43% 0 in 499.00 W/m2 unknown
11:49 51.8 °F 28.4 °F 30.5 in ENE 11.8 mph 18 mph 41% 0 in 503.00 W/m2 unknown
11:54 51.8 °F 28.4 °F 30.5 in East 11.2 mph 14.9 mph 41% 0 in 512.00 W/m2 unknown
11:59 51.8 °F 28.4 °F 30.5 in East 11.8 mph 14.9 mph 41% 0 in 512.00 W/m2 unknown
12:04 51.8 °F 28.4 °F 30.5 in East 12.4 mph 14.9 mph 41% 0 in 513.00 W/m2 unknown
12:09 51.8 °F 28.4 °F 30.5 in ENE 13 mph 14.9 mph 41% 0 in 517.00 W/m2 unknown
12:14 51.8 °F 28.4 °F 30.5 in ENE 13 mph 16.2 mph 40% 0 in 520.00 W/m2 unknown
12:19 53.6 °F 28.4 °F 30.5 in East 11.2 mph 16.2 mph 39% 0 in 524.00 W/m2 unknown
12:24 53.6 °F 28.4 °F 30.5 in ENE 13 mph 14.9 mph 39% 0 in 522.00 W/m2 unknown
12:29 53.6 °F 28.4 °F 30.5 in ENE 9.9 mph 14.9 mph 40% 0 in 527.00 W/m2 unknown
12:34 53.6 °F 28.4 °F 30.5 in East 14.3 mph 19.9 mph 40% 0 in 527.00 W/m2 unknown
12:39 53.6 °F 26.6 °F 30.5 in East 12.4 mph 16.2 mph 36% 0 in 529.00 W/m2 unknown
12:44 53.6 °F 26.6 °F 30.5 in East 13.7 mph 17.4 mph 36% 0 in 529.00 W/m2 unknown
12:49 53.6 °F 24.8 °F 30.5 in East 11.8 mph 17.4 mph 34% 0 in 529.00 W/m2 unknown
12:54 53.6 °F 24.8 °F 30.5 in East 11.8 mph 16.8 mph 34% 0 in 529.00 W/m2 unknown
12:59 53.6 °F 24.8 °F 30.5 in ESE 14.3 mph 17.4 mph 34% 0 in 527.00 W/m2 unknown
13:04 53.6 °F 26.6 °F 30.5 in East 13.7 mph 18 mph 35% 0 in 527.00 W/m2 unknown
13:09 53.6 °F 26.6 °F 30.5 in East 11.8 mph 18 mph 34% 0 in 524.00 W/m2 unknown
13:14 53.6 °F 24.8 °F 30.5 in ESE 9.9 mph 16.2 mph 34% 0 in 524.00 W/m2 unknown
13:19 53.6 °F 26.6 °F 30.5 in East 10.6 mph 14.9 mph 35% 0 in 520.00 W/m2 unknown
13:24 53.6 °F 28.4 °F 30.5 in ENE 9.9 mph 14.9 mph 36% 0 in 519.00 W/m2 unknown
13:29 53.6 °F 28.4 °F 30.5 in East 13.7 mph 17.4 mph 36% 0 in 513.00 W/m2 unknown
13:34 53.6 °F 24.8 °F 30.5 in ESE 13 mph 16.8 mph 34% 0 in 510.00 W/m2 unknown
13:39 53.6 °F 24.8 °F 30.5 in East 11.2 mph 14.3 mph 33% 0 in 506.00 W/m2 unknown
13:44 53.6 °F 24.8 °F 30.5 in East 10.6 mph 14.9 mph 33% 0 in 504.00 W/m2 unknown
13:49 53.6 °F 26.6 °F 30.5 in ESE 11.2 mph 14.9 mph 34% 0 in 497.00 W/m2 unknown
13:54 53.6 °F 26.6 °F 30.5 in East 9.9 mph 14.9 mph 34% 0 in 492.00 W/m2 unknown
13:59 53.6 °F 26.6 °F 30.5 in East 9.9 mph 14.3 mph 34% 0 in 485.00 W/m2 unknown
14:04 53.6 °F 26.6 °F 30.5 in East 8.7 mph 12.4 mph 34% 0 in 482.00 W/m2 unknown
14:09 53.6 °F 26.6 °F 30.5 in East 13 mph 19.9 mph 34% 0 in 473.00 W/m2 unknown
14:14 53.6 °F 26.6 °F 30.4 in East 10.6 mph 12.4 mph 34% 0 in 468.00 W/m2 unknown
14:19 53.6 °F 26.6 °F 30.4 in East 11.2 mph 14.9 mph 35% 0 in 457.00 W/m2 unknown
14:24 53.6 °F 26.6 °F 30.4 in East 7.5 mph 11.2 mph 35% 0 in 454.00 W/m2 unknown
14:29 53.6 °F 26.6 °F 30.4 in ESE 9.3 mph 11.8 mph 34% 0 in 445.00 W/m2 unknown
14:34 53.6 °F 26.6 °F 30.4 in East 9.9 mph 11.8 mph 34% 0 in 438.00 W/m2 unknown
14:39 55.4 °F 26.6 °F 30.4 in ENE 8.7 mph 14.9 mph 34% 0 in 429.00 W/m2 unknown
14:44 55.4 °F 26.6 °F 30.4 in East 12.4 mph 14.9 mph 34% 0 in 422.00 W/m2 unknown
14:49 53.6 °F 24.8 °F 30.4 in East 11.8 mph 17.4 mph 33% 0 in 411.00 W/m2 unknown
14:54 53.6 °F 24.8 °F 30.4 in East 11.8 mph 17.4 mph 33% 0 in 403.00 W/m2 unknown
14:59 53.6 °F 26.6 °F 30.4 in East 11.8 mph 16.2 mph 34% 0 in 394.00 W/m2 unknown
15:04 53.6 °F 26.6 °F 30.4 in East 8.7 mph 16.2 mph 34% 0 in 385.00 W/m2 unknown
15:09 53.6 °F 26.6 °F 30.4 in ESE 12.4 mph 14.9 mph 34% 0 in 376.00 W/m2 unknown
15:14 53.6 °F 26.6 °F 30.4 in ESE 12.4 mph 16.2 mph 34% 0 in 366.00 W/m2 unknown
15:19 53.6 °F 26.6 °F 30.4 in East 11.2 mph 16.2 mph 34% 0 in 355.00 W/m2 unknown
15:24 53.6 °F 26.6 °F 30.4 in ESE 11.2 mph 14.9 mph 34% 0 in 343.00 W/m2 unknown
15:29 53.6 °F 26.6 °F 30.4 in East 13 mph 17.4 mph 34% 0 in 330.00 W/m2 unknown
15:34 53.6 °F 26.6 °F 30.4 in East 10.6 mph 16.8 mph 35% 0 in 323.00 W/m2 unknown
15:39 53.6 °F 26.6 °F 30.4 in ENE 6.8 mph 14.3 mph 35% 0 in 309.00 W/m2 unknown
15:44 53.6 °F 26.6 °F 30.4 in ENE 8.7 mph 11.8 mph 34% 0 in 297.00 W/m2 unknown
15:49 53.6 °F 26.6 °F 30.4 in East 8.1 mph 11.8 mph 34% 0 in 285.00 W/m2 unknown
15:54 53.6 °F 26.6 °F 30.4 in East 6.2 mph 11.8 mph 35% 0 in 272.00 W/m2 unknown
15:59 53.6 °F 26.6 °F 30.4 in East 7.5 mph 9.3 mph 35% 0 in 260.00 W/m2 unknown
16:04 53.6 °F 26.6 °F 30.4 in ESE 9.9 mph 11.8 mph 36% 0 in 248.00 W/m2 unknown
16:09 53.6 °F 26.6 °F 30.4 in East 9.9 mph 13 mph 36% 0 in 236.00 W/m2 unknown
16:14 53.6 °F 28.4 °F 30.4 in East 8.7 mph 13 mph 37% 0 in 220.00 W/m2 unknown
16:19 53.6 °F 26.6 °F 30.4 in East 8.1 mph 11.8 mph 37% 0 in 202.00 W/m2 unknown
16:24 53.6 °F 26.6 °F 30.4 in East 8.1 mph 11.8 mph 37% 0 in 171.00 W/m2 unknown
16:29 53.6 °F 26.6 °F 30.4 in East 9.9 mph 14.3 mph 37% 0 in 160.00 W/m2 unknown
16:34 53.6 °F 28.4 °F 30.4 in East 8.7 mph 14.3 mph 38% 0 in 49.00 W/m2 unknown
16:39 51.8 °F 26.6 °F 30.4 in East 6.8 mph 13 mph 38% 0 in 44.00 W/m2 unknown
16:44 51.8 °F 26.6 °F 30.4 in East 6.2 mph 9.9 mph 38% 0 in 69.00 W/m2 unknown
16:49 51.8 °F 28.4 °F 30.4 in East 9.3 mph 13 mph 39% 0 in 91.00 W/m2 unknown
16:54 51.8 °F 28.4 °F 30.4 in East 8.1 mph 11.8 mph 39% 0 in 91.00 W/m2 unknown
16:59 51.8 °F 26.6 °F 30.4 in East 6.2 mph 11.8 mph 39% 0 in 70.00 W/m2 unknown
17:04 51.8 °F 28.4 °F 30.4 in ESE 5.6 mph 8.7 mph 40% 0 in 49.00 W/m2 unknown
17:09 51.8 °F 28.4 °F 30.4 in ESE 6.2 mph 9.3 mph 41% 0 in 42.00 W/m2 unknown
17:14 51.8 °F 28.4 °F 30.4 in SE 5 mph 8.7 mph 43% 0 in 35.00 W/m2 unknown
17:19 50 °F 28.4 °F 30.4 in SE 3.1 mph 6.8 mph 43% 0 in 21.00 W/m2 unknown
17:24 50 °F 28.4 °F 30.4 in SE 3.1 mph 3.7 mph 44% 0 in 14.00 W/m2 unknown
17:29 50 °F 28.4 °F 30.4 in ESE 3.7 mph 5 mph 45% 0 in 9.00 W/m2 unknown
17:34 50 °F 28.4 °F 30.4 in SE 2.5 mph 5 mph 45% 0 in 5.00 W/m2 unknown
17:39 48.2 °F 28.4 °F 30.4 in SE 1.9 mph 3.7 mph 47% 0 in 0.00 W/m2 unknown
17:44 48.2 °F 28.4 °F 30.4 in SE 1.9 mph 3.1 mph 48% 0 in 0.00 W/m2 unknown
17:49 48.2 °F 28.4 °F 30.4 in SE 1.9 mph 3.1 mph 48% 0 in 0.00 W/m2 unknown
17:54 48.2 °F 28.4 °F 30.4 in SE 1.9 mph 3.7 mph 50% 0 in 0.00 W/m2 unknown
17:59 46.4 °F 30.2 °F 30.4 in SE 2.5 mph 3.7 mph 53% 0 in 0.00 W/m2 unknown
18:04 46.4 °F 30.2 °F 30.4 in SE 1.9 mph 3.7 mph 54% 0 in 0.00 W/m2 unknown
18:09 46.4 °F 30.2 °F 30.4 in SE 1.9 mph 3.7 mph 54% 0 in 0.00 W/m2 unknown
18:14 46.4 °F 30.2 °F 30.4 in ESE 2.5 mph 3.7 mph 52% 0 in 0.00 W/m2 unknown
18:19 46.4 °F 30.2 °F 30.4 in ESE 2.5 mph 3.7 mph 52% 0 in 0.00 W/m2 unknown
18:24 46.4 °F 30.2 °F 30.4 in ESE 1.9 mph 3.1 mph 53% 0 in 0.00 W/m2 unknown
18:29 46.4 °F 30.2 °F 30.4 in ESE 1.9 mph 3.7 mph 54% 0 in 0.00 W/m2 unknown
18:34 44.6 °F 30.2 °F 30.4 in ESE 2.5 mph 3.7 mph 55% 0 in 0.00 W/m2 unknown
18:39 44.6 °F 30.2 °F 30.4 in ESE 2.5 mph 3.7 mph 57% 0 in 0.00 W/m2 unknown
18:44 44.6 °F 32 °F 30.4 in ESE 2.5 mph 3.7 mph 61% 0 in 0.00 W/m2 unknown
18:49 44.6 °F 30.2 °F 30.4 in ESE 1.2 mph 3.1 mph 59% 0 in 0.00 W/m2 unknown
18:54 42.8 °F 30.2 °F 30.4 in ESE 1.2 mph 3.7 mph 59% 0 in 0.00 W/m2 unknown
18:59 42.8 °F 30.2 °F 30.4 in ESE 1.2 mph 3.1 mph 60% 0 in 0.00 W/m2 unknown
19:04 42.8 °F 30.2 °F 30.4 in Calm   1.2 mph 60% 0 in 0.00 W/m2 unknown
19:09 42.8 °F 30.2 °F 30.4 in Calm     60% 0 in 0.00 W/m2 unknown
19:14 42.8 °F 30.2 °F 30.4 in Calm     60% 0 in 0.00 W/m2 unknown
19:19 42.8 °F 30.2 °F 30.4 in Calm     61% 0 in 0.00 W/m2 unknown
19:24 42.8 °F 30.2 °F 30.4 in Calm     62% 0 in 0.00 W/m2 unknown
19:29 41 °F 30.2 °F 30.4 in Calm     63% 0 in 0.00 W/m2 unknown
19:34 41 °F 30.2 °F 30.4 in Calm     63% 0 in 0.00 W/m2 unknown
19:39 41 °F 30.2 °F 30.4 in Calm     64% 0 in 0.00 W/m2 unknown
19:44 41 °F 30.2 °F 30.4 in Calm     65% 0 in 0.00 W/m2 unknown
19:49 39.2 °F 30.2 °F 30.4 in Calm     66% 0 in 0.00 W/m2 unknown
19:54 39.2 °F 30.2 °F 30.4 in Calm     66% 0 in 0.00 W/m2 unknown
19:59 39.2 °F 30.2 °F 30.4 in Calm     67% 0 in 0.00 W/m2 unknown
20:04 39.2 °F 30.2 °F 30.4 in Calm     68% 0 in 0.00 W/m2 unknown
20:09 39.2 °F 30.2 °F 30.4 in Calm     68% 0 in 0.00 W/m2 unknown
20:14 39.2 °F 30.2 °F 30.4 in Calm     68% 0 in 0.00 W/m2 unknown
20:19 39.2 °F 30.2 °F 30.4 in Calm     68% 0 in 0.00 W/m2 unknown
20:24 39.2 °F 30.2 °F 30.4 in Calm     68% 0 in 0.00 W/m2 unknown
20:29 39.2 °F 30.2 °F 30.4 in Calm     66% 0 in 0.00 W/m2 unknown
20:34 39.2 °F 30.2 °F 30.4 in Calm     67% 0 in 0.00 W/m2 unknown
20:39 39.2 °F 30.2 °F 30.4 in Calm     69% 0 in 0.00 W/m2 unknown
20:44 39.2 °F 30.2 °F 30.4 in Calm     69% 0 in 0.00 W/m2 unknown
20:49 39.2 °F 30.2 °F 30.4 in Calm     68% 0 in 0.00 W/m2 unknown
20:54 39.2 °F 28.4 °F 30.4 in Calm     67% 0 in 0.00 W/m2 unknown
20:59 39.2 °F 30.2 °F 30.4 in Calm     67% 0 in 0.00 W/m2 unknown
21:04 39.2 °F 28.4 °F 30.4 in Calm     68% 0 in 0.00 W/m2 unknown
21:09 39.2 °F 30.2 °F 30.4 in Calm     70% 0 in 0.00 W/m2 unknown
21:14 37.4 °F 30.2 °F 30.4 in Calm     70% 0 in 0.00 W/m2 unknown
21:19 37.4 °F 28.4 °F 30.4 in Calm     71% 0 in 0.00 W/m2 unknown
21:24 37.4 °F 28.4 °F 30.4 in Calm     71% 0 in 0.00 W/m2 unknown
21:29 37.4 °F 28.4 °F 30.4 in Calm     73% 0 in 0.00 W/m2 unknown
21:34 35.6 °F 28.4 °F 30.4 in NE 3.1 mph 3.7 mph 74% 0 in 0.00 W/m2 unknown
21:39 37.4 °F 28.4 °F 30.4 in NE 3.1 mph 3.7 mph 74% 0 in 0.00 W/m2 unknown
21:44 37.4 °F 28.4 °F 30.4 in NE 2.5 mph 3.7 mph 73% 0 in 0.00 W/m2 unknown
21:49 37.4 °F 28.4 °F 30.4 in ENE 2.5 mph 3.7 mph 70% 0 in 0.00 W/m2 unknown
21:54 37.4 °F 28.4 °F 30.4 in ENE 1.9 mph 3.7 mph 70% 0 in 0.00 W/m2 unknown
21:59 37.4 °F 28.4 °F 30.4 in ENE 1.9 mph 3.7 mph 70% 0 in 0.00 W/m2 unknown
22:04 37.4 °F 28.4 °F 30.4 in ENE 1.9 mph 3.1 mph 71% 0 in 0.00 W/m2 unknown
22:09 37.4 °F 28.4 °F 30.4 in ENE 1.9 mph 2.5 mph 72% 0 in 0.00 W/m2 unknown
22:14 35.6 °F 28.4 °F 30.4 in ENE 1.9 mph 3.7 mph 74% 0 in 0.00 W/m2 unknown
22:19 35.6 °F 28.4 °F 30.4 in ENE 1.2 mph 3.1 mph 74% 0 in 0.00 W/m2 unknown
22:24 35.6 °F 28.4 °F 30.4 in Calm   1.2 mph 75% 0 in 0.00 W/m2 unknown
22:29 35.6 °F 28.4 °F 30.4 in Calm     75% 0 in 0.00 W/m2 unknown
22:34 35.6 °F 28.4 °F 30.4 in East 2.5 mph 3.7 mph 76% 0 in 0.00 W/m2 unknown
22:39 35.6 °F 28.4 °F 30.4 in ENE 1.9 mph 3.7 mph 76% 0 in 0.00 W/m2 unknown
22:44 35.6 °F 28.4 °F 30.4 in East 1.9 mph 3.7 mph 76% 0 in 0.00 W/m2 unknown
22:49 35.6 °F 28.4 °F 30.4 in ENE 2.5 mph 3.7 mph 77% 0 in 0.00 W/m2 unknown
22:54 35.6 °F 28.4 °F 30.4 in ENE 1.9 mph 2.5 mph 77% 0 in 0.00 W/m2 unknown
22:59 35.6 °F 28.4 °F 30.4 in ENE 1.9 mph 2.5 mph 76% 0 in 0.00 W/m2 unknown
23:04 35.6 °F 28.4 °F 30.4 in ENE 1.9 mph 2.5 mph 76% 0 in 0.00 W/m2 unknown
23:09 35.6 °F 28.4 °F 30.4 in ENE 2.5 mph 3.7 mph 77% 0 in 0.00 W/m2 unknown
23:14 35.6 °F 28.4 °F 30.4 in ENE 2.5 mph 3.7 mph 77% 0 in 0.00 W/m2 unknown
23:19 35.6 °F 28.4 °F 30.4 in ENE 3.1 mph 3.7 mph 77% 0 in 0.00 W/m2 unknown
23:24 35.6 °F 28.4 °F 30.4 in ENE 2.5 mph 3.7 mph 77% 0 in 0.00 W/m2 unknown
23:29 35.6 °F 28.4 °F 30.4 in ENE 3.1 mph 3.7 mph 77% 0 in 0.00 W/m2 unknown
23:34 37.4 °F 28.4 °F 30.4 in ENE 3.1 mph 3.7 mph 74% 0 in 0.00 W/m2 unknown
23:39 37.4 °F 28.4 °F 30.4 in ENE 2.5 mph 5 mph 71% 0 in 0.00 W/m2 unknown
23:44 37.4 °F 28.4 °F 30.4 in ENE 3.7 mph 5 mph 70% 0 in 0.00 W/m2 unknown
23:49 37.4 °F 28.4 °F 30.4 in NE 2.5 mph 5 mph 69% 0 in 0.00 W/m2 unknown
23:54 37.4 °F 28.4 °F 30.4 in NE 1.9 mph 3.7 mph 71% 0 in 0.00 W/m2 unknown
23:59 35.6 °F 28.4 °F 30.4 in NE 3.1 mph 3.7 mph 72% 0 in 0.00 W/m2 unknown
Stazione Meteorologica MeteoMincio Rivalta s/M (MN)
Con i complimenti di Weather Underground - 4 mb



METEO PILLOLE
La tromba marina più alta
Eden, New South Wales - Australia
Avvistata il 16 maggio 1898, di altezza stimata oltre 1500 m.
Share

Non seguire questo link o sarai bannato dal sito!